SP2WM Weather Reports


time (UTC)temp
F
wind
direction
speed
knots
gust
knots
rain 1hr
in
rain 24hr
in
rain mn
in
humidity
%
barometer
mb
20260504045024 58 143 0.9 3.5 0.00 0.00 0.00 61 1009.4
20260504044025 57 144 0.0 1.7 0.00 0.00 0.00 63 1009.3
20260504043026 56 143 0.0 2.6 0.00 0.00 0.00 63 1009.4
20260504042032 56 143 0.9 1.7 0.00 0.00 0.00 64 1009.3
20260504041031 55 144 0.9 1.7 0.00 0.00 0.00 65 1009.3
20260504040032 55 144 0.0 2.6 0.00 0.00 0.00 66 1009.4
20260504035035 54 144 0.0 0.9 0.00 0.00 0.00 66 1009.4
20260504034038 54 143 0.0 0.9 0.00 0.00 0.00 66 1009.4
20260504033038 55 144 0.0 0.9 0.00 0.00 0.00 65 1009.4
20260504032038 55 144 0.0 1.7 0.00 0.00 0.00 65 1009.3
20260504031037 55 144 0.0 0.9 0.00 0.00 0.00 64 1009.4
20260504030022 55 144 0.0 0.9 0.00 0.00 0.00 64 1009.3
20260504025023 55 144 0.0 0.9 0.00 0.00 0.00 63 1009.3
20260504024024 55 144 0.0 0.9 0.00 0.00 0.00 63 1009.2
20260504023022 56 144 0.0 0.9 0.00 0.00 0.00 62 1009.3
20260504022027 57 143 0.9 2.6 0.00 0.00 0.00 61 1009.2
20260504021026 57 144 0.0 0.9 0.00 0.00 0.00 61 1009.4
20260504020026 57 143 0.9 2.6 0.00 0.00 0.00 60 1009.5
20260504015026 57 143 0.0 0.9 0.00 0.00 0.00 60 1009.6
20260504014024 58 144 0.0 1.7 0.00 0.00 0.00 58 1009.4
20260504013026 59 144 0.0 2.6 0.00 0.00 0.00 57 1009.5
20260504012026 60 143 0.0 1.7 0.00 0.00 0.00 55 1009.5
20260504011024 60 143 0.9 3.5 0.00 0.00 0.00 55 1009.4
20260504005032 60 144 0.9 3.5 0.00 0.00 0.00 54 1009.4
20260504004028 60 143 0.0 2.6 0.00 0.00 0.00 55 1009.4
20260504003030 60 143 0.0 1.7 0.00 0.00 0.00 55 1009.4
20260504002032 60 143 0.0 0.9 0.00 0.00 0.00 55 1009.5
20260504001034 60 143 0.0 1.7 0.00 0.00 0.00 56 1009.6
20260504000034 59 144 0.0 0.9 0.00 0.00 0.00 56 1009.5
20260503235036 60 144 0.0 1.7 0.00 0.00 0.00 56 1009.6
20260503234036 61 143 0.0 1.7 0.00 0.00 0.00 54 1009.6
20260503233020 60 144 0.0 0.9 0.00 0.00 0.00 54 1009.7
20260503232023 61 143 0.0 0.9 0.00 0.00 0.00 53 1009.6
20260503231022 62 143 0.0 0.9 0.00 0.00 0.00 52 1009.7
20260503230021 62 143 0.9 2.6 0.00 0.00 0.00 52 1009.7
20260503225022 62 143 0.0 2.6 0.00 0.00 0.00 52 1009.7
20260503224024 62 144 0.0 1.7 0.00 0.00 0.00 51 1009.6
20260503223025 62 143 0.0 2.6 0.00 0.00 0.00 51 1009.7
20260503222024 63 143 0.0 2.6 0.00 0.00 0.00 51 1009.7
20260503221023 63 143 0.9 2.6 0.00 0.00 0.00 50 1009.9
20260503220027 63 143 0.0 1.7 0.00 0.00 0.00 50 1009.8
20260503215027 63 144 0.0 2.6 0.00 0.00 0.00 49 1009.9
20260503214025 63 144 0.9 2.6 0.00 0.00 0.00 49 1009.9
20260503213026 63 143 0.9 2.6 0.00 0.00 0.00 48 1009.8
20260503212031 64 143 0.9 3.5 0.00 0.00 0.00 48 1009.8
20260503211029 64 143 0.9 3.5 0.00 0.00 0.00 47 1009.8
20260503210029 64 143 1.7 3.5 0.00 0.00 0.00 47 1009.8
20260503205029 64 143 0.9 2.6 0.00 0.00 0.00 47 1009.9
20260503203024 65 143 0.9 2.6 0.00 0.00 0.00 46 1010.0
20260503202024 65 143 0.0 2.6 0.00 0.00 0.00 46 1010.0
20260503201023 66 143 0.9 2.6 0.00 0.00 0.00 45 1010.0
20260503200024 66 143 0.9 2.6 0.00 0.00 0.00 44 1010.0
20260503195031 66 143 0.9 2.6 0.00 0.00 0.00 44 1010.0
20260503194029 67 143 0.9 3.5 0.00 0.00 0.00 44 1010.1
20260503193027 67 143 0.9 3.5 0.00 0.00 0.00 43 1010.1
20260503192030 67 143 0.0 1.7 0.00 0.00 0.00 42 1010.0
20260503191034 68 143 0.0 1.7 0.00 0.00 0.00 42 1010.0
20260503190034 68 143 0.0 1.7 0.00 0.00 0.00 41 1010.0
20260503185034 69 143 0.0 0.9 0.00 0.00 0.00 40 1010.1
20260503184033 70 143 0.0 0.9 0.00 0.00 0.00 39 1010.0
20260503183038 71 143 0.0 0.0 0.00 0.00 0.00 37 1009.9
20260503182039 72 143 0.0 0.9 0.00 0.00 0.00 34 1009.8
20260503181038 73 143 0.0 0.9 0.00 0.00 0.00 34 1009.8
20260503180037 75 143 0.0 0.0 0.00 0.00 0.00 33 1009.8
20260503175038 77 143 0.0 0.0 0.00 0.00 0.00 30 1009.7
20260503174039 78 143 0.0 0.9 0.00 0.00 0.00 29 1009.7
20260503173038 79 143 0.0 0.9 0.00 0.00 0.00 27 1009.6
20260503172039 79 143 0.0 2.6 0.00 0.00 0.00 27 1009.6
20260503171040 79 143 0.9 4.3 0.00 0.00 0.00 26 1009.6
20260503131026 82 144 5.2 10.4 0.00 0.00 0.00 22 1011.4
20260503081028 74 146 2.6 6.1 0.00 0.00 0.00 31 1013.8
20260503072034 71 146 3.5 12.2 0.00 0.00 0.00 34 1014.0
20260503071034 71 146 2.6 7.0 0.00 0.00 0.00 36 1014.0